AG7BI Weather Reports


time (UTC)temp
F
wind
direction
speed
knots
gust
knots
rain 1hr
in
rain 24hr
in
rain mn
in
humidity
%
barometer
mb
20260503225052 71 236 0.9 1.7 0.00 0.00 0.00 44 1012.0
20260503224552 71 190 0.9 0.9 0.00 0.00 0.00 44 1011.7
20260503224052 71 120 0.9 1.7 0.00 0.00 0.00 44 1011.7
20260503223552 70 176 1.7 2.6 0.00 0.00 0.00 43 1011.9
20260503223052 71 352 3.5 3.5 0.00 0.00 0.00 43 1012.0
20260503222552 70 217 0.9 2.6 0.00 0.00 0.00 42 1012.1
20260503222052 70 249 0.9 5.2 0.00 0.00 0.00 43 1012.2
20260503221552 71 211 1.7 1.7 0.00 0.00 0.00 43 1012.2
20260503221052 70 164 1.7 3.5 0.00 0.00 0.00 43 1012.2
20260503220552 70 107 1.7 2.6 0.00 0.00 0.00 43 1012.2
20260503220052 70 126 0.9 0.9 0.00 0.00 0.00 42 1012.4
20260503215552 71 121 1.7 1.7 0.00 0.00 0.00 40 1012.3
20260503215052 70 143 0.9 1.7 0.00 0.00 0.00 40 1012.3
20260503214552 70 107 0.9 0.9 0.00 0.00 0.00 41 1012.4
20260503214052 70 287 0.9 3.5 0.00 0.00 0.00 39 1012.7
20260503213552 70 116 2.6 2.6 0.00 0.00 0.00 43 1012.5
20260503213052 70 265 0.9 0.9 0.00 0.00 0.00 40 1012.4
20260503212552 70 0 0.0 1.7 0.00 0.00 0.00 39 1012.5
20260503212052 70 252 0.9 0.9 0.00 0.00 0.00 42 1012.5
20260503211552 70 180 1.7 1.7 0.00 0.00 0.00 42 1012.9
20260503211052 70 135 2.6 4.3 0.00 0.00 0.00 43 1012.6
20260503210552 69 138 0.9 1.7 0.00 0.00 0.00 41 1012.8
20260503210052 69 128 0.9 1.7 0.00 0.00 0.00 42 1012.6
20260503205552 69 227 1.7 1.7 0.00 0.00 0.00 47 1012.8
20260503205052 69 145 0.9 0.9 0.00 0.00 0.00 45 1013.0
20260503204552 69 139 0.9 1.7 0.00 0.00 0.00 46 1013.2
20260503204052 68 0 0.0 0.9 0.00 0.00 0.00 49 1012.9
20260503203552 68 191 0.9 1.7 0.00 0.00 0.00 52 1013.1
20260503203052 68 189 0.9 2.6 0.00 0.00 0.00 50 1013.2
20260503202552 68 189 0.9 0.9 0.00 0.00 0.00 51 1013.3
20260503202052 68 157 0.9 1.7 0.00 0.00 0.00 51 1013.3
20260503201552 68 190 0.9 1.7 0.00 0.00 0.00 52 1013.2
20260503201052 69 326 0.9 2.6 0.00 0.00 0.00 50 1013.3
20260503200552 69 173 1.7 1.7 0.00 0.00 0.00 49 1013.1
20260503200052 68 136 3.5 3.5 0.00 0.00 0.00 48 1013.5
20260503195552 68 244 1.7 1.7 0.00 0.00 0.00 47 1013.6
20260503195052 69 348 2.6 3.5 0.00 0.00 0.00 43 1013.6
20260503194552 69 172 0.9 1.7 0.00 0.00 0.00 45 1013.6
20260503194052 71 262 1.7 1.7 0.00 0.00 0.00 45 1013.6
20260503193552 69 0 0.0 0.9 0.00 0.00 0.00 49 1013.7
20260503193052 69 0 0.0 0.9 0.00 0.00 0.00 45 1013.8
20260503192552 68 0 0.0 1.7 0.00 0.00 0.00 45 1014.0
20260503192052 68 106 0.9 1.7 0.00 0.00 0.00 45 1013.8
20260503191552 69 224 1.7 3.5 0.00 0.00 0.00 45 1013.9
20260503191052 68 0 0.0 2.6 0.00 0.00 0.00 46 1013.8
20260503190552 67 119 0.9 1.7 0.00 0.00 0.00 50 1014.1
20260503190052 66 138 0.9 0.9 0.00 0.00 0.00 58 1014.1
20260503185552 67 179 1.7 1.7 0.00 0.00 0.00 53 1014.1
20260503185052 67 105 1.7 1.7 0.00 0.00 0.00 54 1014.1
20260503184552 67 109 1.7 1.7 0.00 0.00 0.00 54 1014.2
20260503184052 67 159 0.9 1.7 0.00 0.00 0.00 51 1014.1
20260503183552 67 0 0.0 1.7 0.00 0.00 0.00 53 1014.2
20260503183052 66 0 0.0 0.9 0.00 0.00 0.00 55 1014.3
20260503182552 66 0 0.0 0.9 0.00 0.00 0.00 57 1014.2
20260503182052 66 109 0.9 1.7 0.00 0.00 0.00 57 1014.4
20260503181552 66 0 0.0 0.9 0.00 0.00 0.00 56 1014.3
20260503181052 66 0 0.0 0.9 0.00 0.00 0.00 59 1014.4
20260503180552 65 0 0.0 1.7 0.00 0.00 0.00 60 1014.4
20260503180052 65 359 0.9 0.9 0.00 0.00 0.00 58 1014.4
20260503175552 64 207 1.7 1.7 0.00 0.00 0.00 57 1014.5
20260503175052 65 0 0.0 0.9 0.00 0.00 0.00 60 1014.5
20260503174552 65 11 2.6 2.6 0.00 0.00 0.00 58 1014.5
20260503174052 64 126 0.9 1.7 0.00 0.00 0.00 60 1014.6
20260503173552 64 0 0.0 1.7 0.00 0.00 0.00 59 1014.7
20260503173052 64 180 0.9 1.7 0.00 0.00 0.00 58 1014.8
20260503172552 63 154 0.9 0.9 0.00 0.00 0.00 61 1014.8
20260503172052 63 227 1.7 1.7 0.00 0.00 0.00 60 1014.9
20260503171552 63 0 0.0 0.9 0.00 0.00 0.00 62 1014.9
20260503171052 63 140 0.9 0.9 0.00 0.00 0.00 60 1014.9
20260503170552 63 153 1.7 3.5 0.00 0.00 0.00 61 1014.8
20260503150552 59 242 2.6 2.6 0.00 0.00 0.00 66 1015.1
20260503131052 57 0 0.0 1.7 0.00 0.00 0.00 65 1014.6
20260503130552 57 139 1.7 1.7 0.00 0.00 0.00 63 1014.6
20260503110552 54 125 1.7 1.7 0.00 0.00 0.00 70 1015.0
20260503081552 54 189 0.9 0.9 0.00 0.00 0.00 70 1015.2
20260503081052 55 180 0.9 0.9 0.00 0.00 0.00 67 1015.1
20260503080552 55 0 0.0 0.9 0.00 0.00 0.00 70 1015.1
20260503072552 54 0 0.0 0.9 0.00 0.00 0.00 69 1014.9
20260503072052 54 171 0.9 0.9 0.00 0.00 0.00 70 1015.0
20260503071552 55 162 0.9 1.7 0.00 0.00 0.00 68 1014.9
20260503071052 55 0 0.0 1.7 0.00 0.00 0.00 68 1014.5
20260503070552 55 0 0.0 0.9 0.00 0.00 0.00 68 1014.9
20260503055052 57 166 0.9 0.9 0.00 0.00 0.00 62 1014.7
20260503054552 58 107 0.9 0.9 0.00 0.00 0.00 64 1014.7
20260503054052 59 0 0.0 0.9 0.00 0.00 0.00 61 1015.0
20260503053552 60 171 0.9 1.7 0.00 0.00 0.00 62 1014.7
20260503053052 60 162 1.7 1.7 0.00 0.00 0.00 59 1014.6
20260503052552 61 135 1.7 1.7 0.00 0.00 0.00 57 1014.6
20260503052052 61 131 0.9 1.7 0.00 0.00 0.00 54 1014.7
20260503051552 61 179 0.9 1.7 0.00 0.00 0.00 53 1014.6
20260503051052 62 108 0.9 1.7 0.00 0.00 0.00 53 1014.5
20260503050552 62 162 1.7 1.7 0.00 0.00 0.00 53 1014.5
20260503050052 62 171 1.7 1.7 0.00 0.00 0.00 52 1014.7
20260503045552 62 176 1.7 1.7 0.00 0.00 0.00 52 1014.5
20260503045052 62 160 1.7 1.7 0.00 0.00 0.00 51 1014.7
20260503044552 62 177 0.9 1.7 0.00 0.00 0.00 51 1014.5
20260503044052 62 0 0.0 0.9 0.00 0.00 0.00 52 1014.4
20260503043552 62 147 0.9 0.9 0.00 0.00 0.00 52 1014.4
20260503043052 62 0 0.0 0.9 0.00 0.00 0.00 52 1014.4
20260503042552 62 107 0.9 1.7 0.00 0.00 0.00 50 1014.3
20260503042052 62 0 0.0 1.7 0.00 0.00 0.00 51 1014.2
20260503041552 63 116 0.9 1.7 0.00 0.00 0.00 52 1014.1
20260503041052 63 170 0.9 1.7 0.00 0.00 0.00 52 1014.2
20260503040552 63 166 0.9 0.9 0.00 0.00 0.00 51 1014.0
20260503040052 63 209 0.9 1.7 0.00 0.00 0.00 52 1013.9
20260503035552 63 170 0.9 0.9 0.00 0.00 0.00 53 1013.9
20260503035052 63 166 0.9 0.9 0.00 0.00 0.00 52 1014.1
20260503034552 63 179 0.9 0.9 0.00 0.00 0.00 51 1013.9
20260503034052 63 155 2.6 2.6 0.00 0.00 0.00 51 1013.9
20260503033552 63 195 0.9 0.9 0.00 0.00 0.00 52 1013.8
20260503033052 63 148 1.7 1.7 0.00 0.00 0.00 52 1013.8
20260503032552 63 153 0.9 1.7 0.00 0.00 0.00 51 1013.6
20260503032052 63 169 1.7 1.7 0.00 0.00 0.00 52 1013.6
20260503031552 63 185 0.9 1.7 0.00 0.00 0.00 51 1013.7
20260503031052 63 197 1.7 1.7 0.00 0.00 0.00 52 1013.8
20260503030552 64 0 0.0 0.9 0.00 0.00 0.00 52 1013.7
20260503030052 64 211 1.7 1.7 0.00 0.00 0.00 51 1013.6
20260503025552 64 166 1.7 1.7 0.00 0.00 0.00 52 1013.5
20260503025052 64 121 0.9 1.7 0.00 0.00 0.00 52 1013.5
20260503024552 64 0 0.0 0.9 0.00 0.00 0.00 52 1013.3
20260503024052 65 166 0.9 1.7 0.00 0.00 0.00 51 1013.4
20260503023552 65 215 0.9 1.7 0.00 0.00 0.00 50 1013.3
20260503023052 65 0 0.0 0.9 0.00 0.00 0.00 52 1013.6
20260503022552 65 192 0.9 1.7 0.00 0.00 0.00 50 1013.5
20260503022052 65 201 1.7 1.7 0.00 0.00 0.00 50 1013.4
20260503021552 65 0 0.0 0.9 0.00 0.00 0.00 51 1013.4
20260503021052 65 132 1.7 1.7 0.00 0.00 0.00 52 1013.4
20260503020552 66 0 0.0 1.7 0.00 0.00 0.00 51 1013.3
20260503020052 65 85 1.7 1.7 0.00 0.00 0.00 50 1013.5
20260503015552 65 0 0.0 0.9 0.00 0.00 0.00 52 1013.5
20260503015052 65 247 1.7 2.6 0.00 0.00 0.00 51 1013.6
20260503014552 65 163 1.7 1.7 0.00 0.00 0.00 52 1013.8
20260503014052 65 162 0.9 1.7 0.00 0.00 0.00 53 1013.6
20260503013552 66 168 2.6 2.6 0.00 0.00 0.00 52 1013.6
20260503013052 66 168 0.9 1.7 0.00 0.00 0.00 51 1013.6
20260503012552 66 124 1.7 3.5 0.00 0.00 0.00 50 1013.8
20260503012052 66 134 1.7 1.7 0.00 0.00 0.00 52 1013.8
20260503011552 66 148 0.9 2.6 0.00 0.00 0.00 50 1013.7
20260503011052 66 225 1.7 1.7 0.00 0.00 0.00 48 1013.7
20260503010552 66 186 1.7 3.5 0.00 0.00 0.00 48 1013.5
20260503010052 67 149 0.9 1.7 0.00 0.00 0.00 49 1013.6
20260503005552 67 125 0.9 2.6 0.00 0.00 0.00 48 1013.6
20260503005052 67 227 1.7 1.7 0.00 0.00 0.00 46 1013.8
20260503004552 67 114 1.7 1.7 0.00 0.00 0.00 48 1014.0
20260503004052 67 166 0.9 1.7 0.00 0.00 0.00 51 1013.8
20260503003552 67 113 0.9 0.9 0.00 0.00 0.00 48 1013.8
20260503003052 67 109 1.7 1.7 0.00 0.00 0.00 49 1013.8
20260503002552 67 184 2.6 2.6 0.00 0.00 0.00 50 1014.0
20260503002052 67 148 1.7 3.5 0.00 0.00 0.00 48 1013.7
20260503001552 67 280 1.7 3.5 0.00 0.00 0.00 49 1013.9
20260503001052 67 199 0.9 0.9 0.00 0.00 0.00 50 1014.1
20260503000552 66 0 0.0 0.9 0.00 0.00 0.00 50 1013.9
20260503000052 66 215 2.6 2.6 0.00 0.00 0.00 49 1014.0
20260502235552 66 233 1.7 1.7 0.00 0.00 0.00 49 1013.9
20260502235052 66 109 1.7 1.7 0.00 0.00 0.00 49 1014.0
20260502234552 66 275 1.7 2.6 0.00 0.00 0.00 49 1014.3
20260502234052 66 194 1.7 1.7 0.00 0.00 0.00 53 1014.1
20260502233552 66 182 1.7 2.6 0.00 0.00 0.00 51 1014.3
20260502233052 65 0 0.0 0.9 0.00 0.00 0.00 53 1014.3
20260502232552 65 187 0.9 0.9 0.00 0.00 0.00 55 1014.4
20260502232052 65 111 2.6 3.5 0.00 0.00 0.00 53 1014.5
20260502231552 65 203 0.9 2.6 0.00 0.00 0.00 53 1014.5
20260502231052 65 178 0.9 1.7 0.00 0.00 0.00 54 1014.7
20260502230552 65 170 0.9 1.7 0.00 0.00 0.00 56 1014.6
20260502230052 65 143 0.9 0.9 0.00 0.00 0.00 55 1014.6
20260502225552 65 197 1.7 1.7 0.00 0.00 0.00 55 1014.9